STARLINK-1754 (46590 NORAD) Tracking and Keplerian Element Data

This shows tracking and keplerian element data for the satellite.

Feedback or suggestion? Click here.




ElementValue
Catalog46590
NameSTARLINK-1754
Epoch Orbit176
Epoch Day304.91667824
Epoch Year2020
RAAN321.8508
Inclination53.0038
Eccentricity0.0008318
Argument of Perigee278.0085
Mean Anonmoly11.2796
Mean Motion15.62656293
Decay Rate0.00089407
L11 46590U 20070BL 20304.91667824 .00089407 00000-0 97378-3 0 9990
L22 46590 53.0038 321.8508 0008318 278.0085 11.2796 15.62656293 1767

Live tracking and technical data element details for STARLINK-1754 (NORAD 46590). STARLINK-1754 can be tracked NOW for your location showing map with azimuth and elevation plus other details from your city location.

Track the satellite on the map from your city or location and see movement details for azimuth, elevation, latitude, longitude, range, height, and movement on the map or in text.







IsCatalogInMostPopularTable: catalog: 46590, numindb: 3
Update: records affected: 1



GetName: 46590 STARLINK-1754

Hit Count: updated at: Sat, 31 Oct 2020 10:58:59 GMT